Location: Kaltenbach
(49.2000°N, 7.7500°E)
Time: 09:09:15
(UTC+00:00)

ATLAS CENTAUR R/B - Pass Details

Date: 24 January 2020
Orbit: 461 x 687 km, 64.6° (Epoch: 12 February)

Event Time Altitude Azimuth Distance (km) Brightness Sun altitude
Rises 17:23:17 0° 323° (NW) 2,805 5.2 -11.6°
Reaches altitude 10° 17:25:43 10° 331° (NNW) 1,860 4.2 -12.0°
Maximum altitude 17:29:38 39° 41° (NE) 806 1.8 -12.6°
Enters shadow 17:32:09 18° 104° (ESE) 1,323 2.7 -13.0°
